TimeAKST,TemperatureF,Dew PointF,Humidity,Sea Level PressureIn,VisibilityMPH,Wind Direction,Wind SpeedMPH,Gust SpeedMPH,PrecipitationIn,Events,Conditions,WindDirDegrees,DateUTC
12:16 AM,41.0,33.8,76,29.88,10.0,ESE,4.6,-,N/A,,Overcast,120,2012-11-06 09:16:00
12:36 AM,39.2,35.6,87,29.88,10.0,SSE,5.8,-,N/A,,Overcast,150,2012-11-06 09:36:00
12:56 AM,39.2,33.8,81,29.88,10.0,SE,6.9,-,N/A,,Mostly Cloudy,140,2012-11-06 09:56:00
1:16 AM,39.2,35.6,87,29.87,10.0,SSE,5.8,-,N/A,,Overcast,150,2012-11-06 10:16:00
1:36 AM,41.0,35.6,81,29.87,10.0,SE,10.4,-,N/A,,Overcast,140,2012-11-06 10:36:00
1:56 AM,41.0,35.6,81,29.87,10.0,SSE,11.5,-,N/A,,Overcast,150,2012-11-06 10:56:00
2:16 AM,42.8,35.6,76,29.87,10.0,SE,11.5,-,N/A,,Overcast,140,2012-11-06 11:16:00
2:36 AM,42.8,35.6,76,29.87,10.0,SSE,10.4,16.1,N/A,,Overcast,150,2012-11-06 11:36:00
2:56 AM,42.8,33.8,70,29.87,10.0,SE,13.8,-,N/A,,Overcast,130,2012-11-06 11:56:00
3:16 AM,42.8,35.6,76,29.86,10.0,SE,12.7,-,N/A,,Overcast,140,2012-11-06 12:16:00
3:36 AM,42.8,35.6,76,29.86,10.0,SSE,6.9,-,N/A,,Overcast,150,2012-11-06 12:36:00
3:56 AM,42.8,35.6,76,29.86,10.0,South,6.9,-,N/A,,Overcast,190,2012-11-06 12:56:00
4:16 AM,42.8,35.6,76,29.86,10.0,SSE,6.9,-,N/A,,Overcast,150,2012-11-06 13:16:00
4:36 AM,42.8,35.6,76,29.85,10.0,SSE,9.2,-,N/A,,Overcast,150,2012-11-06 13:36:00
4:56 AM,42.8,35.6,76,29.85,10.0,SE,4.6,-,N/A,,Overcast,140,2012-11-06 13:56:00
5:16 AM,41.0,35.6,81,29.85,10.0,SE,4.6,-,N/A,,Overcast,140,2012-11-06 14:16:00
5:36 AM,41.0,35.6,81,29.85,10.0,SE,3.5,-,N/A,,Overcast,140,2012-11-06 14:36:00
5:56 AM,41.0,35.6,81,29.85,10.0,SSE,5.8,-,N/A,,Overcast,150,2012-11-06 14:56:00
6:16 AM,41.0,33.8,76,29.84,10.0,ESE,3.5,-,N/A,,Overcast,120,2012-11-06 15:16:00
6:36 AM,41.0,33.8,76,29.84,10.0,Calm,Calm,-,N/A,,Overcast,0,2012-11-06 15:36:00
6:56 AM,39.2,35.6,87,29.83,10.0,NW,3.5,-,N/A,,Overcast,320,2012-11-06 15:56:00
7:16 AM,39.2,33.8,81,29.83,10.0,NNW,5.8,-,N/A,,Overcast,330,2012-11-06 16:16:00
7:36 AM,39.2,33.8,81,29.83,10.0,NNW,4.6,-,N/A,,Overcast,330,2012-11-06 16:36:00
7:56 AM,39.2,33.8,81,29.82,10.0,NNW,6.9,-,N/A,,Overcast,330,2012-11-06 16:56:00
8:16 AM,39.2,33.8,81,29.81,10.0,NW,6.9,-,N/A,,Overcast,320,2012-11-06 17:16:00
8:36 AM,39.2,33.8,81,29.82,10.0,NW,6.9,-,N/A,,Overcast,320,2012-11-06 17:36:00
8:56 AM,39.2,33.8,81,29.81,10.0,NNW,6.9,-,N/A,,Overcast,330,2012-11-06 17:56:00
9:16 AM,39.2,35.6,87,29.81,7.0,NNW,8.1,-,N/A,,Overcast,330,2012-11-06 18:16:00
9:36 AM,39.2,35.6,87,29.80,1.2,NNW,6.9,-,N/A,,Overcast,330,2012-11-06 18:36:00
9:56 AM,39.2,35.6,87,29.80,1.2,NNW,6.9,-,N/A,,Overcast,330,2012-11-06 18:56:00
10:16 AM,39.2,35.6,87,29.79,3.0,NNW,8.1,-,N/A,,Overcast,340,2012-11-06 19:16:00
10:36 AM,39.2,35.6,87,29.79,8.0,NNW,8.1,-,N/A,,Overcast,330,2012-11-06 19:36:00
10:56 AM,39.2,35.6,87,29.79,5.0,NNW,5.8,-,N/A,,Overcast,330,2012-11-06 19:56:00
11:16 AM,39.2,35.6,87,29.79,7.0,NW,4.6,-,N/A,,Overcast,320,2012-11-06 20:16:00
11:36 AM,39.2,35.6,87,29.78,10.0,North,6.9,-,N/A,,Overcast,350,2012-11-06 20:36:00
11:56 AM,39.2,35.6,87,29.77,10.0,NNW,5.8,-,N/A,,Overcast,340,2012-11-06 20:56:00
12:16 PM,39.2,35.6,87,29.76,10.0,NNW,8.1,-,N/A,,Overcast,330,2012-11-06 21:16:00
12:36 PM,39.2,35.6,87,29.75,10.0,NNW,5.8,-,N/A,,Overcast,330,2012-11-06 21:36:00
12:56 PM,39.2,35.6,87,29.75,10.0,NNW,8.1,-,N/A,,Overcast,340,2012-11-06 21:56:00
1:16 PM,39.2,35.6,87,29.74,10.0,NNW,6.9,-,N/A,,Overcast,330,2012-11-06 22:16:00
1:36 PM,39.2,35.6,87,29.74,10.0,NNW,5.8,-,N/A,,Overcast,340,2012-11-06 22:36:00
1:56 PM,39.2,35.6,87,29.74,10.0,NNW,4.6,-,N/A,,Overcast,340,2012-11-06 22:56:00
2:16 PM,39.2,35.6,87,29.73,10.0,NNW,4.6,-,N/A,,Overcast,340,2012-11-06 23:16:00
2:36 PM,39.2,35.6,87,29.72,10.0,NNW,4.6,-,N/A,,Overcast,330,2012-11-06 23:36:00
2:56 PM,39.2,35.6,87,29.72,10.0,NNW,4.6,-,N/A,,Overcast,330,2012-11-06 23:56:00
3:16 PM,39.2,35.6,87,29.71,10.0,NNW,5.8,-,N/A,,Overcast,330,2012-11-07 00:16:00
3:36 PM,39.2,35.6,87,29.71,10.0,NNW,5.8,-,N/A,,Overcast,340,2012-11-07 00:36:00
3:56 PM,39.2,35.6,87,29.71,10.0,NNW,5.8,-,N/A,,Overcast,330,2012-11-07 00:56:00
4:16 PM,39.2,35.6,87,29.71,10.0,NNW,6.9,-,N/A,,Overcast,340,2012-11-07 01:16:00
4:36 PM,39.2,35.6,87,29.70,10.0,NNW,6.9,-,N/A,,Overcast,330,2012-11-07 01:36:00
4:56 PM,39.2,33.8,81,29.70,10.0,North,4.6,-,N/A,,Overcast,350,2012-11-07 01:56:00
5:16 PM,39.2,33.8,81,29.71,10.0,North,5.8,-,N/A,,Overcast,360,2012-11-07 02:16:00
5:36 PM,39.2,33.8,81,29.71,9.0,North,6.9,-,N/A,,Overcast,350,2012-11-07 02:36:00
5:56 PM,39.2,33.8,81,29.71,10.0,NNW,5.8,-,N/A,,Overcast,340,2012-11-07 02:56:00
6:16 PM,39.2,33.8,81,29.72,10.0,NNW,6.9,-,N/A,,Overcast,340,2012-11-07 03:16:00
6:36 PM,39.2,33.8,81,29.72,10.0,North,8.1,-,N/A,,Overcast,350,2012-11-07 03:36:00
6:56 PM,37.4,33.8,87,29.72,10.0,NNW,9.2,-,N/A,,Overcast,340,2012-11-07 03:56:00
7:16 PM,37.4,33.8,87,29.73,10.0,NNW,8.1,-,N/A,,Overcast,330,2012-11-07 04:16:00
7:36 PM,37.4,32.0,81,29.73,10.0,NNW,8.1,-,N/A,,Mostly Cloudy,340,2012-11-07 04:36:00
7:56 PM,37.4,33.8,87,29.73,10.0,NNW,10.4,-,N/A,,Overcast,340,2012-11-07 04:56:00
8:16 PM,37.4,32.0,81,29.74,10.0,NNW,10.4,-,N/A,,Overcast,330,2012-11-07 05:16:00
8:36 PM,37.4,32.0,81,29.74,10.0,NNW,11.5,-,N/A,,Overcast,330,2012-11-07 05:36:00
8:56 PM,37.4,32.0,81,29.75,10.0,NNW,10.4,-,N/A,,Overcast,330,2012-11-07 05:56:00
9:16 PM,37.4,32.0,81,29.76,10.0,NNW,9.2,-,N/A,,Overcast,340,2012-11-07 06:16:00
9:36 PM,37.4,30.2,75,29.76,10.0,NNW,8.1,-,N/A,,Overcast,340,2012-11-07 06:36:00
9:56 PM,37.4,30.2,75,29.77,10.0,NNW,9.2,-,N/A,,Overcast,340,2012-11-07 06:56:00
10:16 PM,37.4,30.2,75,29.78,10.0,North,8.1,-,N/A,,Overcast,350,2012-11-07 07:16:00
10:36 PM,37.4,30.2,75,29.78,10.0,NNW,9.2,-,N/A,,Overcast,340,2012-11-07 07:36:00
10:56 PM,37.4,30.2,75,29.78,10.0,NNW,8.1,-,N/A,,Overcast,330,2012-11-07 07:56:00
11:16 PM,37.4,30.2,75,29.79,10.0,NNW,9.2,-,N/A,,Overcast,330,2012-11-07 08:16:00
11:56 PM,35.6,30.2,81,29.81,10.0,NNW,10.4,-,N/A,,Overcast,340,2012-11-07 08:56:00